Flag for U.S.A. Weather past 2 weeks in Binghamton, New York, U.S.A.

Now
40 °F

Overcast.


Feels Like: 35 °F
Forecast: 37 / 48 °F
Wind: 7 mph from Northwest

Location: Binghamton Regional Airport


UV Index: 3 (Moderate)

Visibility: 10 mi


Pressure: 29.59 "Hg

Humidity: 77%

Dew point: 33 °F

Location of BinghamtonLocation

Historic Weather in Binghamton

°F

Binghamton temperature yesterday

Maximum temperature yesterday: 63 °F (at 10:53 AM)
Minimum temperature yesterday: 43 °F (at 11:53 PM)
Average temperature yesterday: 54 °F

Past Weeks' High & Low Weather Summary

 TemperatureHumidityPressure
High79 °F (Apr 13, 3:53 PM)100% (Apr 8, 4:53 AM)30.66 "Hg (Apr 8, 4:53 AM)
Low19 °F (Apr 16, 5:53 AM)19% (Apr 21, 7:53 PM)29.35 "Hg (Apr 8, 9:53 AM)
Average47 °F61%30.04 "Hg
* Reported Apr 8 3:53 AM — Apr 23 3:53 AM, Binghamton, Weather by CustomWeather, © 2014

Note: Actual official high and low records may vary slightly from our data, if they occured in-between our weather recording intervals... More about our weather records

Advertising

Historic Weather Conditions — Data for Previous 24 hours

 ConditionsComfort  
Time TempWeatherWind HumidityBarometerVisibility
3:53 AM
Apr 23
40 °FOvercast.7 mph77%29.59 "Hg10 mi
2:53 AM40 °FOvercast.6 mph73%29.59 "Hg10 mi
1:53 AM41 °FMostly cloudy.14 mph70%29.60 "Hg10 mi
12:53 AM42 °FMostly cloudy.10 mph76%29.61 "Hg10 mi
11:53 PM
Apr 22
43 °FLow clouds.15 mph82%29.61 "Hg10 mi
10:53 PM46 °FOvercast.12 mph86%29.59 "Hg9 mi
9:53 PM48 °FPassing clouds.12 mph83%29.58 "Hg9 mi
8:53 PM51 °FMostly cloudy.15 mph86%29.56 "Hg10 mi
7:53 PM54 °FBroken clouds.7 mph90%29.54 "Hg10 mi
6:53 PM55 °FScattered clouds.No wind83%29.53 "Hg10 mi
5:53 PM56 °FScattered clouds.5 mph84%29.52 "Hg10 mi
4:53 PM56 °FMostly cloudy.7 mph90%29.52 "Hg7 mi
3:53 PM55 °FMostly cloudy.10 mph90%29.53 "Hg8 mi
2:53 PM54 °FLight rain. Fog.8 mph93%29.55 "Hg4 mi
2:04 PM54 °FLight rain. Fog.7 mph88%29.57 "Hg3 mi
12:53 PM55 °FLight rain. Overcast.10 mph77%29.57 "Hg8 mi
11:53 AM56 °FLight rain. Overcast.9 mph70%29.60 "Hg9 mi
10:53 AM63 °FBroken clouds.7 mph34%29.59 "Hg10 mi
9:53 AM59 °FMostly cloudy.6 mph35%29.60 "Hg10 mi
8:53 AM57 °FOvercast.6 mph36%29.62 "Hg10 mi
7:53 AM56 °FOvercast.7 mph37%29.65 "Hg10 mi
6:53 AM54 °FMostly cloudy.5 mph35%29.65 "Hg10 mi
5:53 AM54 °FPassing clouds.6 mph34%29.66 "Hg10 mi
4:53 AM55 °FClear.7 mph33%29.67 "Hg10 mi
Weather by CustomWeather, © 2014

See weather overview